Starlink 4502

operational
NORAD ID: 53557 Int'l Des: 2022-101 Owner: SPXS Country: US Constellation: starlink
LEOCIRCULAR

Starlink 4502について

説明を読み込み中...

リアルタイム位置

3D地球を読み込み中...

次回通過

高度履歴

Altitude vs Time

uPlot chart will show altitude changes over time

軌道要素

1 53557U 22101AG 25260.04748712 -.00001109 00000-0 -51597-4 0 9993
2 53557 53.2161 123.6314 0001339 94.7013 265.4133 15.08831111170747
Epoch: Sep 17, 2025 • Age: 10 hours

現在のステータス

高度 546.7 km
速度 7.59 km/s
衛星直下点 -22.92°S, 149.34°E
打ち上げ日 Aug 19, 2022
運用期間 3 years
タイプ internet

技術仕様

分類 Payload
質量 300.00 kg
乾燥質量 290.00 kg
総質量 300.00 kg
長さ 0.20 m
直径 2.80 m
スパン 9.00 m
形状 Box + pan
製造者 SPXS
バスタイプ Starlink
フェーズステータス In Orbit
所有者/国 SPXS/US

大規模コンステレーション

Loading constellations...